TimeEDT,TemperatureF,Dew PointF,Humidity,Sea Level PressureIn,VisibilityMPH,Wind Direction,Wind SpeedMPH,Gust SpeedMPH,PrecipitationIn,Events,Conditions,WindDirDegrees,DateUTC
12:15 AM,51.3,43.2,74,30.21,10.0,Calm,Calm,-,N/A,,Clear,0,2013-10-10 04:15:00
12:34 AM,48.2,42.4,80,30.21,10.0,Calm,Calm,-,N/A,,Clear,0,2013-10-10 04:34:00
12:54 AM,48.9,43.7,82,30.21,10.0,Calm,Calm,-,N/A,,Clear,0,2013-10-10 04:54:00
1:15 AM,47.3,43.0,85,30.21,10.0,Calm,Calm,-,N/A,,Clear,0,2013-10-10 05:15:00
1:34 AM,46.8,42.8,86,30.20,10.0,Calm,Calm,-,N/A,,Clear,0,2013-10-10 05:34:00
1:54 AM,45.3,42.4,90,30.20,10.0,Calm,Calm,-,N/A,,Clear,0,2013-10-10 05:54:00
2:14 AM,44.8,42.1,90,30.20,10.0,Calm,Calm,-,N/A,,Clear,0,2013-10-10 06:14:00
2:34 AM,44.8,42.3,91,30.21,10.0,Calm,Calm,-,N/A,,Clear,0,2013-10-10 06:34:00
2:55 AM,44.8,42.1,90,30.21,10.0,Calm,Calm,-,N/A,,Clear,0,2013-10-10 06:55:00
3:14 AM,44.1,41.7,91,30.20,10.0,Calm,Calm,-,N/A,,Clear,0,2013-10-10 07:14:00
3:34 AM,43.5,41.0,91,30.20,10.0,Calm,Calm,-,N/A,,Clear,0,2013-10-10 07:34:00
3:55 AM,43.9,41.5,91,30.20,10.0,Calm,Calm,-,N/A,,Clear,0,2013-10-10 07:55:00
4:14 AM,43.9,41.7,92,30.19,10.0,Calm,Calm,-,N/A,,Clear,0,2013-10-10 08:14:00
4:35 AM,43.2,40.8,91,30.19,10.0,Calm,Calm,-,N/A,,Clear,0,2013-10-10 08:35:00
4:55 AM,42.8,40.3,91,30.19,10.0,Calm,Calm,-,N/A,,Clear,0,2013-10-10 08:55:00
5:14 AM,43.2,41.0,92,30.19,10.0,Calm,Calm,-,N/A,,Clear,0,2013-10-10 09:14:00
5:35 AM,43.0,40.5,91,30.20,5.0,Calm,Calm,-,N/A,,Clear,0,2013-10-10 09:35:00
5:55 AM,42.8,40.5,91,30.20,7.0,Calm,Calm,-,N/A,,Clear,0,2013-10-10 09:55:00
6:14 AM,42.1,39.7,91,30.21,7.0,Calm,Calm,-,N/A,,Clear,0,2013-10-10 10:14:00
6:35 AM,41.5,39.4,92,30.20,10.0,Calm,Calm,-,N/A,,Clear,0,2013-10-10 10:35:00
6:54 AM,41.4,39.4,93,30.20,10.0,Calm,Calm,-,N/A,,Clear,0,2013-10-10 10:54:00
7:14 AM,41.9,39.6,91,30.20,10.0,Calm,Calm,-,N/A,,Clear,0,2013-10-10 11:14:00
7:35 AM,41.0,38.7,91,30.21,7.0,Calm,Calm,-,N/A,,Clear,0,2013-10-10 11:35:00
7:54 AM,41.7,39.4,91,30.20,10.0,Calm,Calm,-,N/A,,Clear,0,2013-10-10 11:54:00
8:14 AM,41.4,39.2,92,30.21,7.0,Calm,Calm,-,N/A,,Clear,0,2013-10-10 12:14:00
8:35 AM,42.6,40.6,93,30.21,7.0,Calm,Calm,-,N/A,,Clear,0,2013-10-10 12:35:00
8:54 AM,43.9,41.7,92,30.21,7.0,Calm,Calm,-,N/A,,Clear,0,2013-10-10 12:54:00
9:15 AM,47.5,45.3,92,30.21,7.0,Calm,Calm,-,N/A,,Clear,0,2013-10-10 13:15:00
9:35 AM,49.6,47.5,92,30.20,7.0,Calm,Calm,-,N/A,,Clear,0,2013-10-10 13:35:00
9:54 AM,52.5,49.3,89,30.21,7.0,Calm,Calm,-,N/A,,Clear,0,2013-10-10 13:54:00
10:15 AM,56.3,50.0,79,30.21,7.0,Calm,Calm,-,N/A,,Clear,0,2013-10-10 14:15:00
10:34 AM,56.8,50.2,78,30.21,10.0,Calm,Calm,-,N/A,,Clear,0,2013-10-10 14:34:00
10:55 AM,60.3,50.5,70,30.22,10.0,Calm,Calm,-,N/A,,Clear,0,2013-10-10 14:55:00
11:15 AM,62.6,50.2,64,30.22,10.0,Calm,Calm,-,N/A,,Clear,0,2013-10-10 15:15:00
11:34 AM,63.9,49.3,59,30.22,10.0,Calm,Calm,-,N/A,,Clear,0,2013-10-10 15:34:00
11:55 AM,65.8,49.8,56,30.22,10.0,Calm,Calm,-,N/A,,Clear,0,2013-10-10 15:55:00
12:15 PM,67.1,49.3,53,30.21,10.0,SSW,3.5,-,N/A,,Clear,200,2013-10-10 16:15:00
12:34 PM,68.7,49.3,50,30.20,10.0,Calm,Calm,-,N/A,,Clear,0,2013-10-10 16:34:00
12:55 PM,69.8,48.4,46,30.19,10.0,SE,3.5,-,N/A,,Clear,130,2013-10-10 16:55:00
1:15 PM,70.5,48.0,45,30.19,10.0,South,4.6,-,N/A,,Clear,170,2013-10-10 17:15:00
1:34 PM,71.2,47.8,43,30.18,10.0,SSW,4.6,-,N/A,,Clear,210,2013-10-10 17:34:00
1:55 PM,71.6,46.8,41,30.17,10.0,East,3.5,-,N/A,,Clear,80,2013-10-10 17:55:00
2:14 PM,72.0,46.4,40,30.17,10.0,SW,5.8,-,N/A,,Clear,220,2013-10-10 18:14:00
2:34 PM,71.8,45.9,39,30.16,10.0,ENE,4.6,-,N/A,,Clear,70,2013-10-10 18:34:00
2:55 PM,72.3,45.5,38,30.15,10.0,SW,3.5,-,N/A,,Clear,230,2013-10-10 18:55:00
3:14 PM,73.6,47.3,39,30.15,10.0,Calm,Calm,-,N/A,,Clear,0,2013-10-10 19:14:00
3:35 PM,73.4,45.3,37,30.14,10.0,SSE,4.6,-,N/A,,Clear,150,2013-10-10 19:35:00
3:55 PM,72.5,44.2,36,30.14,10.0,NE,3.5,-,N/A,,Clear,50,2013-10-10 19:55:00
4:14 PM,73.4,46.6,38,30.13,10.0,South,4.6,-,N/A,,Clear,190,2013-10-10 20:14:00
4:35 PM,73.2,46.0,38,30.12,10.0,SW,3.5,-,N/A,,Clear,230,2013-10-10 20:35:00
4:55 PM,73.2,44.6,36,30.12,10.0,ESE,3.5,-,N/A,,Clear,120,2013-10-10 20:55:00
5:14 PM,72.9,45.0,37,30.11,10.0,Calm,Calm,-,N/A,,Clear,0,2013-10-10 21:14:00
5:35 PM,72.5,44.2,36,30.12,10.0,East,5.8,-,N/A,,Clear,90,2013-10-10 21:35:00
5:55 PM,72.3,44.2,36,30.12,10.0,ESE,3.5,-,N/A,,Clear,110,2013-10-10 21:55:00
6:14 PM,71.2,44.8,39,30.12,10.0,East,3.5,-,N/A,,Clear,100,2013-10-10 22:14:00
6:35 PM,69.8,45.9,42,30.12,10.0,Calm,Calm,-,N/A,,Clear,0,2013-10-10 22:35:00
6:54 PM,67.3,46.9,48,30.11,10.0,Calm,Calm,-,N/A,,Clear,0,2013-10-10 22:54:00
7:14 PM,62.8,47.8,58,30.11,10.0,SE,3.5,-,N/A,,Clear,130,2013-10-10 23:14:00
7:35 PM,60.1,47.7,64,30.11,10.0,SE,3.5,-,N/A,,Clear,130,2013-10-10 23:35:00
7:54 PM,59.0,47.7,66,30.11,10.0,Calm,Calm,-,N/A,,Clear,0,2013-10-10 23:54:00
8:15 PM,56.7,48.0,73,30.12,10.0,Calm,Calm,-,N/A,,Clear,0,2013-10-11 00:15:00
8:35 PM,56.1,48.4,75,30.12,10.0,Calm,Calm,-,N/A,,Clear,0,2013-10-11 00:35:00
8:54 PM,53.4,47.5,80,30.12,10.0,Calm,Calm,-,N/A,,Clear,0,2013-10-11 00:54:00
9:15 PM,54.9,48.4,79,30.12,10.0,Calm,Calm,-,N/A,,Clear,0,2013-10-11 01:15:00
9:35 PM,52.3,46.9,82,30.12,10.0,Calm,Calm,-,N/A,,Clear,0,2013-10-11 01:35:00
9:54 PM,52.7,47.3,82,30.11,10.0,Calm,Calm,-,N/A,,Clear,0,2013-10-11 01:54:00
10:15 PM,51.1,46.6,85,30.12,10.0,Calm,Calm,-,N/A,,Clear,0,2013-10-11 02:15:00
10:34 PM,50.4,46.9,88,30.12,10.0,Calm,Calm,-,N/A,,Clear,0,2013-10-11 02:34:00
10:55 PM,51.4,47.5,86,30.12,10.0,Calm,Calm,-,N/A,,Clear,0,2013-10-11 02:55:00
11:15 PM,49.5,46.4,89,30.12,10.0,ENE,4.6,-,N/A,,Clear,70,2013-10-11 03:15:00
11:34 PM,49.1,46.4,90,30.12,10.0,East,4.6,-,N/A,,Clear,100,2013-10-11 03:34:00
11:55 PM,53.2,45.0,73,30.12,10.0,Calm,Calm,-,N/A,,Clear,0,2013-10-11 03:55:00